QPF
0.02 0.02 0.03 0.03 0.04 0.05 0.05 0.05 0.07 0.07 0.06 0.04 0.04 0.05 0.06 0.06 0.06 0.06 0.05 0.05 0.05 0.06 0.06 0.05 0.04 0.04 0.03 0.04 0.05 0.05 0.04 0.04 0.04 0.05 0.07 0.06 0.05 0.06
0.02 0.02 0.03 0.03 0.04 0.06 0.06 0.06 0.06 0.06 0.06 0.04 0.03 0.03 0.03 0.05 0.05 0.05 0.04 0.05 0.05 0.06 0.06 0.06 0.06 0.05 0.04 0.04 0.04 0.04 0.04 0.04 0.04 0.04 0.05 0.06 0.06 0.05
0.01 0.02 0.02 0.03 0.04 0.05 0.06 0.06 0.06 0.06 0.06 0.05 0.04 0.04 0.03 0.03 0.05 0.06 0.06 0.05 0.06 0.07 0.07 0.06 0.06 0.05 0.04 0.04 0.04 0.03 0.03 0.03 0.03 0.03 0.03 0.04 0.04 0.04
0.01 0.01 0.03 0.04 0.06 0.07 0.07 0.07 0.07 0.06 0.06 0.05 0.04 0.05 0.04 0.03 0.03 0.04 0.06 0.06 0.06 0.07 0.07 0.06 0.05 0.05 0.04 0.04 0.04 0.03 0.03 0.03 0.02 0.02 0.02 0.02 0.03 0.04
0.01 0.01 0.02 0.04 0.06 0.07 0.07 0.07 0.07 0.06 0.06 0.06 0.05 0.04 0.04 0.03 0.02 0.02 0.03 0.06 0.07 0.06 0.06 0.06 0.06 0.05 0.04 0.04 0.03 0.03 0.03 0.03 0.02 0.02 0.02 0.02 0.02 0.03
0.02 0.02 0.02 0.03 0.04 0.05 0.06 0.07 0.08 0.07 0.06 0.06 0.06 0.05 0.05 0.04 0.03 0.02 0.02 0.03 0.04 0.05 0.06 0.06 0.06 0.06 0.05 0.04 0.03 0.03 0.03 0.03 0.03 0.02 0.02 0.02 0.02 0.03
0.02 0.02 0.03 0.04 0.05 0.05 0.04 0.05 0.05 0.06 0.06 0.06 0.05 0.05 0.05 0.04 0.03 0.02 0.02 0.03 0.04 0.04 0.04 0.05 0.05 0.05 0.05 0.04 0.03 0.03 0.02 0.02 0.02 0.02 0.02 0.03 0.02 0.02
0.03 0.02 0.02 0.03 0.04 0.04 0.04 0.04 0.04 0.05 0.05 0.05 0.04 0.04 0.03 0.03 0.02 0.02 0.02 0.02 0.03 0.03 0.03 0.03 0.04 0.05 0.05 0.04 0.04 0.03 0.02 0.02 0.02 0.02 0.03 0.03 0.03 0.03
0.04 0.04 0.04 0.03 0.03 0.03 0.03 0.03 0.03 0.04 0.04 0.03 0.03 0.02 0.02 0.02 0.02 0.03 0.02 0.02 0.03 0.03 0.03 0.04 0.04 0.04 0.04 0.04 0.04 0.03 0.03 0.03 0.02 0.03 0.03 0.03 0.03 0.04
0.03 0.03 0.03 0.04 0.04 0.03 0.03 0.03 0.03 0.03 0.03 0.03 0.03 0.02 0.03 0.03 0.03 0.03 0.03 0.03 0.02 0.03 0.03 0.03 0.04 0.04 0.04 0.04 0.04 0.04 0.03 0.03 0.03 0.03 0.03 0.03 0.04 0.04
0.03 0.03 0.03 0.03 0.03 0.04 0.04 0.04 0.04 0.03 0.03 0.04 0.04 0.04 0.05 0.05 0.05 0.05 0.05 0.05 0.04 0.03 0.04 0.04 0.03 0.04 0.04 0.04 0.04 0.04 0.03 0.03 0.03 0.03 0.03 0.04 0.04 0.05
0.03 0.03 0.04 0.04 0.03 0.03 0.04 0.04 0.04 0.04 0.04 0.04 0.05 0.05 0.05 0.05 0.05 0.05 0.05 0.06 0.05 0.04 0.03 0.04 0.04 0.04 0.06 0.05 0.04 0.04 0.04 0.04 0.03 0.03 0.03 0.03 0.04 0.05
0.04 0.04 0.03 0.04 0.04 0.04 0.04 0.04 0.04 0.04 0.04 0.05 0.05 0.05 0.05 0.05 0.04 0.04 0.04 0.05 0.05 0.04 0.03 0.04 0.05 0.05 0.06 0.06 0.05 0.04 0.04 0.04 0.04 0.04 0.03 0.03 0.03 0.05
0.04 0.04 0.04 0.04 0.04 0.05 0.04 0.04 0.04 0.04 0.04 0.05 0.06 0.06 0.05 0.04 0.04 0.04 0.04 0.04 0.04 0.04 0.03 0.05 0.06 0.05 0.06 0.05 0.04 0.04 0.04 0.04 0.04 0.04 0.04 0.04 0.04 0.04
0.04 0.04 0.04 0.04 0.04 0.04 0.05 0.05 0.04 0.04 0.04 0.04 0.05 0.05 0.04 0.04 0.04 0.04 0.03 0.04 0.04 0.03 0.03 0.04 0.05 0.05 0.05 0.05 0.04 0.03 0.04 0.04 0.04 0.03 0.03 0.04 0.04 0.04
0.03 0.04 0.04 0.04 0.04 0.04 0.04 0.04 0.05 0.05 0.05 0.05 0.04 0.03 0.03 0.03 0.03 0.03 0.04 0.04 0.04 0.04 0.03 0.03 0.03 0.05 0.05 0.05 0.05 0.04 0.03 0.04 0.04 0.04 0.03 0.03 0.03 0.03
0.04 0.04 0.03 0.03 0.03 0.03 0.03 0.03 0.03 0.04 0.04 0.04 0.04 0.04 0.03 0.03 0.03 0.02 0.03 0.04 0.04 0.04 0.04 0.03 0.03 0.04 0.05 0.06 0.06 0.05 0.04 0.03 0.03 0.04 0.05 0.04 0.04 0.03
0.02 0.02 0.02 0.02 0.02 0.02 0.02 0.02 0.02 0.03 0.03 0.03 0.04 0.04 0.04 0.04 0.03 0.03 0.03 0.04 0.04 0.03 0.03 0.04 0.04 0.05 0.06 0.06 0.06 0.05 0.05 0.05 0.04 0.05 0.06 0.05 0.04 0.03
0.01 0.01 0.01 0.01 0.02 0.02 0.02 0.02 0.02 0.02 0.02 0.02 0.02 0.03 0.03 0.03 0.03 0.03 0.03 0.03 0.03 0.03 0.02 0.03 0.04 0.05 0.06 0.06 0.06 0.06 0.06 0.06 0.06 0.06 0.07 0.06 0.05 0.03
0.01 0.01 0.01 0.01 0.01 0.01 0.02 0.02 0.02 0.02 0.02 0.02 0.02 0.02 0.02 0.03 0.03 0.03 0.03 0.03 0.03 0.03 0.03 0.03 0.03 0.05 0.07 0.07 0.06 0.05 0.05 0.07 0.08 0.07 0.07 0.06 0.06 0.06
0.01 0.01 0.02 0.02 0.02 0.02 0.02 0.02 0.02 0.02 0.02 0.02 0.02 0.03 0.03 0.03 0.03 0.03 0.03 0.03 0.03 0.03 0.03 0.03 0.02 0.03 0.04 0.05 0.05 0.04 0.04 0.05 0.08 0.09 0.08 0.08 0.07 0.07
0.01 0.01 0.01 0.01 0.02 0.02 0.02 0.02 0.02 0.02 0.02 0.02 0.03 0.03 0.03 0.03 0.03 0.03 0.03 0.03 0.03 0.03 0.03 0.03 0.02 0.02 0.03 0.04 0.05 0.04 0.04 0.05 0.07 0.08 0.10 0.10 0.09 0.08
0.02 0.01 0.01 0.01 0.02 0.02 0.02 0.02 0.02 0.02 0.02 0.02 0.03 0.03 0.03 0.03 0.03 0.03 0.03 0.03 0.03 0.03 0.03 0.03 0.03 0.04 0.04 0.04 0.04 0.05 0.05 0.05 0.06 0.06 0.08 0.08 0.08 0.07
MSLP
1016.43 1016.15 1015.87 1015.56 1015.19 1014.73 1014.16 1013.48 1012.72 1011.91 1011.08 1010.28 1009.56 1008.94 1008.42 1008.02 1007.70 1007.43 1007.20 1006.97 1006.73 1006.46 1006.19 1005.92 1005.68 1005.48 1005.35 1005.28 1005.27 1005.30 1005.37 1005.43 1005.50 1005.58 1005.66 1005.79 1005.97 1006.25
1016.34 1016.08 1015.82 1015.56 1015.24 1014.85 1014.35 1013.74 1013.04 1012.27 1011.46 1010.67 1009.92 1009.24 1008.66 1008.17 1007.77 1007.42 1007.12 1006.82 1006.53 1006.22 1005.92 1005.63 1005.37 1005.15 1005.00 1004.90 1004.85 1004.85 1004.87 1004.90 1004.93 1004.97 1005.02 1005.11 1005.27 1005.52
1016.17 1015.89 1015.64 1015.40 1015.14 1014.80 1014.38 1013.86 1013.24 1012.54 1011.79 1011.02 1010.27 1009.57 1008.94 1008.38 1007.90 1007.47 1007.08 1006.70 1006.34 1005.99 1005.64 1005.31 1005.02 1004.78 1004.60 1004.47 1004.40 1004.37 1004.37 1004.37 1004.38 1004.39 1004.41 1004.48 1004.60 1004.81
1015.99 1015.68 1015.42 1015.18 1014.94 1014.65 1014.29 1013.85 1013.31 1012.69 1012.01 1011.29 1010.56 1009.86 1009.20 1008.59 1008.03 1007.52 1007.04 1006.59 1006.15 1005.73 1005.33 1004.95 1004.62 1004.35 1004.14 1003.98 1003.89 1003.84 1003.81 1003.79 1003.78 1003.78 1003.78 1003.82 1003.92 1004.10
1015.85 1015.50 1015.21 1014.95 1014.70 1014.43 1014.12 1013.73 1013.26 1012.70 1012.08 1011.41 1010.72 1010.02 1009.35 1008.71 1008.10 1007.52 1006.97 1006.44 1005.93 1005.45 1004.98 1004.55 1004.18 1003.86 1003.61 1003.42 1003.30 1003.22 1003.17 1003.15 1003.12 1003.11 1003.10 1003.12 1003.20 1003.35
1015.75 1015.35 1015.02 1014.72 1014.44 1014.16 1013.85 1013.48 1013.04 1012.53 1011.96 1011.33 1010.67 1010.00 1009.33 1008.67 1008.04 1007.42 1006.82 1006.24 1005.67 1005.13 1004.61 1004.12 1003.70 1003.33 1003.03 1002.81 1002.65 1002.54 1002.47 1002.43 1002.40 1002.37 1002.35 1002.37 1002.43 1002.56
1015.66 1015.22 1014.83 1014.47 1014.14 1013.82 1013.47 1013.09 1012.65 1012.16 1011.61 1011.01 1010.38 1009.74 1009.09 1008.44 1007.81 1007.18 1006.57 1005.96 1005.36 1004.78 1004.21 1003.68 1003.21 1002.79 1002.45 1002.17 1001.97 1001.84 1001.74 1001.67 1001.63 1001.59 1001.57 1001.58 1001.63 1001.75
1015.54 1015.05 1014.60 1014.18 1013.78 1013.39 1012.99 1012.56 1012.09 1011.58 1011.03 1010.45 1009.85 1009.24 1008.63 1008.02 1007.42 1006.82 1006.22 1005.61 1005.01 1004.41 1003.82 1003.26 1002.74 1002.28 1001.89 1001.57 1001.33 1001.15 1001.02 1000.93 1000.86 1000.81 1000.78 1000.78 1000.82 1000.93
1015.33 1014.81 1014.30 1013.82 1013.35 1012.87 1012.40 1011.90 1011.39 1010.85 1010.29 1009.71 1009.14 1008.57 1008.00 1007.45 1006.90 1006.35 1005.79 1005.22 1004.64 1004.04 1003.45 1002.87 1002.32 1001.82 1001.39 1001.03 1000.74 1000.52 1000.36 1000.24 1000.15 1000.08 1000.03 1000.01 1000.03 1000.12
1015.01 1014.46 1013.92 1013.38 1012.84 1012.30 1011.75 1011.19 1010.62 1010.04 1009.46 1008.90 1008.34 1007.81 1007.30 1006.81 1006.33 1005.84 1005.34 1004.82 1004.27 1003.69 1003.10 1002.52 1001.95 1001.43 1000.96 1000.56 1000.24 999.98 999.78 999.63 999.50 999.40 999.32 999.27 999.26 999.32
1014.60 1014.04 1013.47 1012.90 1012.32 1011.72 1011.12 1010.50 1009.89 1009.28 1008.68 1008.12 1007.58 1007.09 1006.63 1006.20 1005.78 1005.35 1004.90 1004.43 1003.91 1003.36 1002.78 1002.19 1001.62 1001.08 1000.59 1000.16 999.81 999.52 999.28 999.09 998.92 998.77 998.64 998.54 998.48 998.49
1014.14 1013.59 1013.02 1012.43 1011.83 1011.21 1010.57 1009.93 1009.28 1008.65 1008.05 1007.48 1006.97 1006.50 1006.08 1005.69 1005.30 1004.92 1004.51 1004.06 1003.56 1003.02 1002.45 1001.86 1001.28 1000.73 1000.22 999.78 999.41 999.09 998.82 998.58 998.37 998.16 997.97 997.79 997.66 997.59
1013.69 1013.16 1012.61 1012.04 1011.44 1010.82 1010.17 1009.51 1008.86 1008.22 1007.61 1007.05 1006.54 1006.09 1005.68 1005.30 1004.94 1004.56 1004.15 1003.70 1003.20 1002.65 1002.06 1001.47 1000.88 1000.32 999.81 999.36 998.97 998.64 998.34 998.06 997.79 997.51 997.24 996.97 996.74 996.58
1013.31 1012.81 1012.29 1011.75 1011.17 1010.57 1009.93 1009.28 1008.63 1007.99 1007.38 1006.82 1006.31 1005.85 1005.43 1005.03 1004.64 1004.24 1003.80 1003.31 1002.77 1002.19 1001.58 1000.97 1000.37 999.80 999.29 998.84 998.45 998.10 997.77 997.46 997.13 996.78 996.41 996.05 995.71 995.44
1013.02 1012.55 1012.07 1011.56 1011.02 1010.44 1009.82 1009.19 1008.55 1007.91 1007.30 1006.73 1006.20 1005.71 1005.26 1004.81 1004.37 1003.90 1003.40 1002.84 1002.24 1001.61 1000.96 1000.31 999.69 999.12 998.61 998.16 997.77 997.42 997.08 996.73 996.35 995.93 995.48 995.01 994.57 994.18
1012.80 1012.37 1011.92 1011.44 1010.93 1010.37 1009.78 1009.16 1008.53 1007.89 1007.27 1006.68 1006.12 1005.58 1005.07 1004.56 1004.03 1003.47 1002.88 1002.24 1001.56 1000.85 1000.14 999.46 998.82 998.24 997.73 997.30 996.92 996.57 996.23 995.85 995.44 994.97 994.44 993.88 993.34 992.85
1012.65 1012.23 1011.81 1011.35 1010.85 1010.30 1009.72 1009.10 1008.46 1007.82 1007.18 1006.56 1005.95 1005.36 1004.77 1004.17 1003.55 1002.90 1002.19 1001.45 1000.68 999.90 999.13 998.40 997.73 997.14 996.64 996.22 995.86 995.53 995.20 994.82 994.39 993.89 993.32 992.70 992.09 991.53
1012.50 1012.10 1011.68 1011.22 1010.71 1010.16 1009.57 1008.93 1008.28 1007.61 1006.94 1006.27 1005.61 1004.96 1004.29 1003.60 1002.88 1002.12 1001.31 1000.46 999.59 998.73 997.89 997.12 996.42 995.83 995.33 994.93 994.60 994.29 993.99 993.64 993.22 992.72 992.15 991.52 990.89 990.30
1012.35 1011.94 1011.50 1011.02 1010.49 1009.91 1009.29 1008.63 1007.94 1007.23 1006.52 1005.80 1005.08 1004.35 1003.61 1002.82 1002.00 1001.14 1000.22 999.27 998.31 997.37 996.47 995.64 994.91 994.30 993.82 993.43 993.13 992.86 992.60 992.30 991.94 991.49 990.96 990.38 989.77 989.21
1012.17 1011.74 1011.27 1010.75 1010.19 1009.57 1008.90 1008.19 1007.45 1006.70 1005.93 1005.16 1004.38 1003.57 1002.74 1001.87 1000.95 999.98 998.97 997.92 996.87 995.84 994.87 993.99 993.22 992.59 992.10 991.73 991.46 991.25 991.05 990.83 990.55 990.20 989.77 989.27 988.76 988.28
1011.96 1011.51 1011.00 1010.44 1009.82 1009.15 1008.43 1007.66 1006.87 1006.06 1005.24 1004.41 1003.55 1002.68 1001.76 1000.80 999.78 998.71 997.60 996.45 995.30 994.18 993.14 992.19 991.38 990.72 990.22 989.86 989.61 989.46 989.33 989.21 989.05 988.83 988.54 988.20 987.83 987.48
1011.74 1011.26 1010.72 1010.11 1009.44 1008.71 1007.93 1007.11 1006.26 1005.39 1004.51 1003.61 1002.69 1001.73 1000.73 999.68 998.57 997.40 996.17 994.93 993.68 992.47 991.34 990.32 989.45 988.75 988.22 987.85 987.64 987.53 987.49 987.47 987.45 987.38 987.28 987.12 986.94 986.78
1011.51 1011.00 1010.42 1009.78 1009.05 1008.27 1007.44 1006.57 1005.67 1004.75 1003.81 1002.84 1001.85 1000.82 999.73 998.59 997.38 996.10 994.78 993.43 992.08 990.77 989.55 988.45 987.51 986.75 986.18 985.81 985.60 985.53 985.56 985.66 985.77 985.88 985.96 986.01 986.05 986.09
Thickness
5542 5544 5545 5547 5547 5547 5547 5548 5549 5554 5559 5559 5557 5558 5556 5557 5558 5558 5559 5560 5560 5561 5562 5562 5563 5563 5563 5562 5561 5561 5562 5561 5560 5560 5561 5561 5561 5561
5531 5533 5534 5536 5536 5535 5535 5536 5537 5540 5544 5546 5544 5544 5543 5544 5545 5546 5547 5548 5549 5549 5550 5551 5552 5552 5552 5551 5550 5550 5550 5550 5550 5550 5551 5551 5551 5552
5522 5523 5524 5524 5525 5524 5524 5525 5526 5528 5530 5532 5531 5530 5530 5531 5532 5532 5533 5535 5537 5538 5538 5539 5540 5540 5540 5539 5538 5539 5539 5540 5540 5540 5540 5541 5542 5542
5513 5513 5514 5514 5514 5514 5514 5515 5516 5517 5518 5519 5519 5518 5518 5518 5519 5519 5520 5522 5524 5526 5526 5526 5527 5528 5528 5528 5528 5528 5529 5529 5529 5530 5531 5532 5533 5533
5504 5504 5504 5504 5505 5505 5505 5505 5506 5506 5506 5507 5508 5506 5506 5505 5506 5507 5508 5510 5512 5514 5514 5515 5515 5516 5516 5517 5517 5517 5517 5518 5519 5520 5521 5522 5523 5523
5496 5495 5495 5495 5495 5495 5495 5495 5495 5495 5495 5496 5496 5494 5494 5493 5493 5494 5496 5497 5500 5501 5502 5503 5504 5505 5506 5506 5507 5507 5506 5507 5508 5509 5511 5513 5514 5514
5489 5488 5487 5486 5484 5484 5484 5484 5484 5484 5484 5484 5483 5483 5483 5482 5481 5481 5482 5485 5488 5489 5490 5492 5493 5495 5496 5496 5496 5496 5496 5497 5498 5500 5502 5504 5505 5505
5481 5480 5479 5477 5475 5473 5473 5472 5472 5472 5472 5472 5472 5472 5473 5471 5469 5467 5468 5471 5476 5479 5477 5480 5481 5485 5487 5487 5487 5486 5486 5488 5489 5491 5493 5495 5496 5496
5472 5472 5470 5468 5466 5464 5463 5462 5461 5461 5460 5461 5460 5461 5460 5460 5458 5458 5457 5458 5463 5464 5463 5470 5472 5475 5477 5478 5477 5477 5478 5478 5480 5482 5484 5486 5487 5488
5463 5462 5461 5459 5457 5455 5454 5453 5452 5451 5450 5450 5450 5450 5448 5447 5447 5447 5446 5446 5449 5450 5451 5456 5462 5465 5467 5468 5469 5469 5469 5470 5471 5473 5475 5477 5479 5480
5454 5452 5451 5450 5448 5446 5445 5444 5443 5441 5439 5437 5436 5436 5435 5435 5434 5433 5434 5434 5438 5441 5440 5442 5448 5451 5456 5459 5461 5460 5460 5461 5463 5465 5466 5468 5470 5472
5446 5444 5441 5440 5438 5436 5435 5434 5433 5432 5430 5428 5427 5426 5425 5425 5423 5423 5423 5423 5425 5429 5431 5429 5433 5434 5443 5450 5450 5449 5450 5452 5454 5456 5458 5459 5461 5462
5435 5434 5432 5430 5428 5426 5425 5424 5423 5422 5420 5418 5417 5416 5415 5415 5414 5413 5412 5412 5413 5416 5418 5416 5419 5421 5424 5433 5438 5439 5441 5443 5445 5447 5450 5451 5452 5453
5425 5423 5422 5420 5418 5416 5415 5414 5412 5411 5410 5408 5406 5406 5406 5405 5404 5402 5402 5401 5402 5404 5405 5404 5406 5408 5412 5418 5425 5430 5432 5433 5435 5438 5441 5443 5444 5445
5414 5412 5411 5410 5408 5407 5405 5403 5401 5400 5399 5397 5396 5395 5394 5393 5392 5392 5392 5392 5392 5393 5394 5394 5396 5399 5402 5407 5413 5418 5421 5425 5426 5429 5431 5434 5436 5438
5403 5402 5401 5400 5398 5396 5395 5392 5390 5388 5387 5386 5386 5384 5383 5382 5382 5382 5381 5382 5384 5386 5385 5386 5388 5390 5394 5397 5401 5407 5410 5413 5417 5419 5421 5425 5428 5431
5393 5392 5391 5390 5389 5387 5384 5382 5379 5378 5376 5375 5375 5374 5373 5372 5372 5371 5371 5372 5374 5378 5380 5380 5381 5383 5387 5389 5393 5398 5401 5404 5407 5409 5412 5417 5421 5424
5383 5382 5381 5379 5377 5375 5373 5371 5369 5367 5365 5364 5364 5363 5363 5363 5363 5363 5363 5364 5366 5369 5371 5373 5375 5378 5381 5384 5385 5389 5393 5396 5398 5400 5403 5407 5413 5417
5373 5372 5370 5368 5366 5363 5361 5359 5358 5356 5354 5353 5353 5353 5353 5353 5354 5355 5356 5357 5359 5361 5362 5364 5366 5369 5374 5379 5381 5381 5383 5387 5390 5393 5396 5399 5404 5409
5362 5361 5359 5357 5354 5352 5350 5348 5347 5345 5344 5344 5344 5343 5344 5344 5345 5347 5348 5350 5351 5353 5355 5356 5358 5360 5363 5367 5370 5374 5375 5378 5382 5385 5388 5391 5396 5400
5352 5350 5348 5346 5343 5341 5339 5337 5336 5335 5335 5334 5335 5335 5335 5336 5338 5339 5341 5342 5344 5346 5348 5350 5351 5352 5353 5356 5361 5367 5370 5371 5373 5376 5379 5384 5388 5393
5342 5339 5337 5335 5332 5330 5328 5327 5326 5326 5325 5325 5326 5326 5326 5327 5329 5331 5333 5335 5337 5339 5340 5342 5344 5346 5348 5351 5356 5359 5362 5364 5367 5369 5371 5375 5378 5383
5332 5329 5327 5325 5322 5320 5318 5317 5316 5317 5317 5316 5317 5317 5318 5320 5321 5323 5325 5327 5329 5331 5333 5335 5337 5340 5342 5344 5347 5350 5353 5356 5360 5363 5366 5368 5370 5374